Home   Weather   Río Grande   Past weeks

Flag for Argentina Past Weather in Río Grande, Tierra del Fuego, Argentina — Yesterday and Last 2 Weeks

66 °F

Partly sunny.

Feels Like: 66 °F
Forecast: 40 / 58 °F
Wind: 12 mph from West

Location: Rio Grande B. A.

Current Time: Oct 23, 2016 at 5:30:09 PM

Latest Report: Oct 23, 2016 at 5:00 PM

Visibility: N/A

Pressure: 29.95 "Hg

Humidity: 52%

Dew Point: 48 °F

Location of Río GrandeLocation

Past Weather in Río Grande — Graph


Río Grande Temperature Yesterday

Maximum temperature yesterday: 55 °F (at 1:00 PM)
Minimum temperature yesterday: 37 °F (at 3:00 AM)
Average temperature yesterday: 47 °F

High & Low Weather Summary for the Past Weeks

High66 °F (Oct 23, 3:00 PM)100% (Oct 8, 7:00 PM)30.27 "Hg (Oct 8, 7:00 PM)
Low27 °F (Oct 14, 5:00 AM)52% (Oct 23, 3:00 PM)28.71 "Hg (Oct 12, 2:00 PM)
Average45 °F80%29.60 "Hg
* Reported Oct 8 4:00 PM — Oct 23 4:00 PM, Río Grande, Weather by CustomWeather, © 2016

Note: Actual official high and low records may vary slightly from our data, if they occured in-between our weather recording intervals... More about our weather records


Río Grande Weather History for the Previous 24 Hours

Scroll right to see more
Time TempWeatherWind HumidityBarometerVisibility
4:00 PM
Sun, Oct 23
66 °FPartly sunny.18 mph52%29.95 "HgN/A
3:00 PM66 °FScattered clouds.16 mph52%29.98 "HgN/A
2:00 PM64 °FScattered clouds.14 mph56%29.98 "HgN/A
1:00 PM61 °FScattered clouds.18 mph68%29.98 "HgN/A
12:00 PM59 °FSunny.14 mph72%29.98 "Hg10 mi
11:00 AM55 °FCool.13 mph72%30.01 "HgN/A
10:00 AM52 °FPassing clouds.10 mph77%30.01 "HgN/A
9:00 AM48 °FBroken clouds.8 mph82%30.01 "HgN/A
8:00 AM43 °FScattered clouds.9 mph81%30.01 "HgN/A
7:00 AM39 °FPassing clouds.6 mph93%30.01 "HgN/A
6:00 AM37 °FPassing clouds.7 mph93%30.01 "HgN/A
4:00 AM39 °FClear.9 mph87%30.01 "Hg10 mi
2:00 AM43 °FPassing clouds.16 mph76%29.98 "HgN/A
1:00 AM43 °FPassing clouds.20 mph76%29.98 "HgN/A
12:00 AM43 °FPassing clouds.16 mph76%29.95 "HgN/A
11:00 PM
Sat, Oct 22
43 °FPassing clouds.16 mph76%29.92 "HgN/A
10:00 PM45 °FPassing clouds.17 mph71%29.92 "HgN/A
9:00 PM45 °FPassing clouds.15 mph76%29.89 "HgN/A
8:00 PM48 °FPassing clouds.22 mph71%29.86 "HgN/A
7:00 PM52 °FScattered clouds.25 mph62%29.83 "HgN/A
6:00 PM55 °FScattered clouds.22 mph63%29.80 "HgN/A
5:00 PM55 °FScattered clouds.28 mph59%29.77 "HgN/A
Weather by CustomWeather, © 2016

See weather overviewHow to use our weather pages